sat.trackr.live / text

‹ back to catalog

STARLINK-37153

NORAD 68664 · 2026-077C

PAYLOAD ACTIVE UNKNOWN

§ Identity

Operator
Country
US
Launch date
2026-04-11
Launch site
AFWTR
Launch vehicle
Mass (kg)
RCS (m²)

Purposes: comms

External: N2YO · Heavens-Above · Gunter

§ Orbital elements

Epoch: 2026-09-19T10:08:34.083744Z

Period
93.91 min
Inclination
97.2844°
Eccentricity
0.0001614
Mean motion
15.33456799 rev/d
Perigee alt
464.4 km
Apogee alt
466.6 km
Semi-major
6,843.6 km
B*
6.4994e-4
RAAN
132.2688°
Arg perigee
100.1085°
Mean anomaly
260.0340°
Rev number
2,484

§ Raw data

STARLINK-371531 68664U 26077C   26262.42261671  .00020974  00000+0  64994-3 0  99952 68664  97.2844 132.2688 0001614 100.1085 260.0340 15.33456799 24848

JSON: /api/v1/satellites/68664 · /tle

For live sub-satellite position, see the globe view (requires WebGL).

§ Visibility from observer

Set your observer location to see the next 7 days of passes ≥ 10°. The values pass through the URL so the page stays shareable.

No JS? Fill the form by hand. The geolocation button needs JavaScript.